Hourly Weather Salzburg

Today, 25 October, Sunday

Time Temperature Precipitation Wind Pressure Humidity
00:00 +2°C° 0 mm 1 mps 625 mmHg 94%
01:00 +2°C° 0 mm 1 mps 625 mmHg 93%
02:00 +2°C° 0 mm 1 mps 624 mmHg 93%
03:00 +1°C° 0 mm 2 mps 624 mmHg 92%
04:00 +1°C° 0 mm 2 mps 623 mmHg 92%
05:00 +1°C° 0 mm 2 mps 623 mmHg 91%
06:00 +1°C° 0 mm 2 mps 623 mmHg 90%
07:00 +1°C° 0 mm 2 mps 623 mmHg 90%
08:00 +3°C° 0 mm 2 mps 624 mmHg 85%
09:00 +6°C° 0 mm 1 mps 624 mmHg 80%
10:00 +9°C° 0 mm 1 mps 625 mmHg 75%
11:00 +10°C° 0 mm 1 mps 625 mmHg 68%
12:00 +11°C° 0 mm 1 mps 625 mmHg 61%
13:00 +13°C° 0 mm 1 mps 625 mmHg 54%
14:00 +12°C° 0 mm 1 mps 624 mmHg 61%
15:00 +11°C° 0 mm 1 mps 623 mmHg 68%
16:00 +9°C° 0 mm 1 mps 623 mmHg 74%
17:00 +7°C° 0 mm 2 mps 622 mmHg 79%
18:00 +5°C° 0 mm 2 mps 621 mmHg 84%
19:00 +3°C° 0 mm 2 mps 621 mmHg 89%
20:00 +3°C° 0 mm 2 mps 621 mmHg 89%
21:00 +2°C° 0 mm 2 mps 620 mmHg 88%
22:00 +1°C° 0 mm 3 mps 620 mmHg 88%
23:00 +1°C° 0 mm 3 mps 620 mmHg 88%

Tomorrow, 26 October, Monday

Time Temperature Precipitation Wind Pressure Humidity
00:00 +2°C° 0 mm 2 mps 619 mmHg 88%
01:00 +2°C° 0 mm 2 mps 619 mmHg 87%
02:00 +2°C° 0 mm 2 mps 619 mmHg 88%
03:00 +1°C° 0 mm 2 mps 619 mmHg 88%
04:00 +1°C° 0 mm 2 mps 618 mmHg 88%
05:00 +1°C° 0 mm 2 mps 618 mmHg 89%
06:00 +1°C° 0 mm 2 mps 618 mmHg 89%
07:00 +1°C° 0 mm 2 mps 618 mmHg 90%
08:00 +3°C° 0 mm 2 mps 619 mmHg 83%
09:00 +5°C° 0 mm 2 mps 620 mmHg 76%
10:00 +8°C° 0 mm 1 mps 620 mmHg 68%
11:00 +8°C° 0 mm 1 mps 620 mmHg 69%
12:00 +8°C° 0 mm 2 mps 621 mmHg 70%
13:00 +8°C° 0 mm 2 mps 621 mmHg 70%
14:00 +7°C° 0 mm 2 mps 620 mmHg 77%
15:00 +7°C° 0 mm 1 mps 620 mmHg 84%
16:00 +5°C° 0 mm 1 mps 619 mmHg 91%
17:00 +5°C° 0.2 mm 1 mps 619 mmHg 93%
18:00 +5°C° 0.2 mm 1 mps 619 mmHg 95%
19:00 +4°C° 0.2 mm 1 mps 619 mmHg 96%
20:00 +4°C° 0.4 mm 1 mps 619 mmHg 97%
21:00 +4°C° 0.4 mm 1 mps 619 mmHg 97%
22:00 +3°C° 0.4 mm 1 mps 619 mmHg 97%
23:00 +3°C° 1.5 mm 1 mps 619 mmHg 98%

Day after tomorrow, 27 October, Tuesday

Time Temperature Precipitation Wind Pressure Humidity
00:00 +2°C° 1.5 mm 1 mps 618 mmHg 98%
01:00 +2°C° 1.5 mm 1 mps 618 mmHg 98%
02:00 +1°C° 2.1 mm 1 mps 618 mmHg 98%
03:00 +1°C° 2.1 mm 1 mps 618 mmHg 98%
04:00 0°C° 2.1 mm 1 mps 618 mmHg 98%
05:00 0°C° 2.9 mm 1 mps 618 mmHg 99%
06:00 0°C° 2.9 mm 1 mps 618 mmHg 99%
07:00 -1°C° 2.9 mm 1 mps 618 mmHg 99%
08:00 0°C° 2.4 mm 1 mps 619 mmHg 99%
09:00 0°C° 2.4 mm 1 mps 619 mmHg 99%
10:00 0°C° 2.4 mm 1 mps 619 mmHg 99%
11:00 0°C° 1 mm 1 mps 619 mmHg 99%
12:00 0°C° 1 mm 1 mps 620 mmHg 99%
13:00 0°C° 1 mm 1 mps 620 mmHg 99%
14:00 0°C° 0.5 mm 1 mps 620 mmHg 99%
15:00 -1°C° 0.5 mm 0 mps 621 mmHg 99%
16:00 -1°C° 0.5 mm 0 mps 621 mmHg 98%
17:00 0°C° 0 mm 1 mps 621 mmHg 98%
18:00 -1°C° 0 mm 1 mps 621 mmHg 97%
19:00 -2°C° 0 mm 1 mps 621 mmHg 96%
20:00 -2°C° 0 mm 1 mps 621 mmHg 96%
21:00 -2°C° 0 mm 1 mps 621 mmHg 95%
22:00 -5°C° 0 mm 2 mps 621 mmHg 94%
23:00 -5°C° 0 mm 2 mps 621 mmHg 93%

28 October, Wednesday

Time Temperature Precipitation Wind Pressure Humidity
00:00 -5°C° 0 mm 2 mps 621 mmHg 92%
01:00 -5°C° 0 mm 2 mps 621 mmHg 91%
02:00 -5°C° 0 mm 2 mps 621 mmHg 90%
03:00 -5°C° 0 mm 2 mps 621 mmHg 89%
04:00 -5°C° 0 mm 2 mps 621 mmHg 88%
05:00 -5°C° 0 mm 2 mps 621 mmHg 86%
06:00 -5°C° 0 mm 2 mps 622 mmHg 85%
07:00 -5°C° 0 mm 2 mps 622 mmHg 83%
08:00 -3°C° 0 mm 2 mps 623 mmHg 86%
09:00 +1°C° 0 mm 1 mps 623 mmHg 88%
10:00 +3°C° 0 mm 1 mps 624 mmHg 91%
11:00 +3°C° 0 mm 0 mps 624 mmHg 90%
12:00 +4°C° 0 mm 0 mps 624 mmHg 88%
13:00 +5°C° 0 mm 0 mps 625 mmHg 87%
14:00 +5°C° 0 mm 1 mps 624 mmHg 88%
15:00 +4°C° 0 mm 1 mps 624 mmHg 89%
16:00 +3°C° 0 mm 1 mps 623 mmHg 90%
17:00 +2°C° 0 mm 1 mps 623 mmHg 88%
18:00 +1°C° 0 mm 1 mps 623 mmHg 85%
19:00 -2°C° 0 mm 2 mps 623 mmHg 82%
20:00 -1°C° 0 mm 1 mps 623 mmHg 81%
21:00 -1°C° 0 mm 1 mps 623 mmHg 80%
22:00 -1°C° 0 mm 1 mps 624 mmHg 79%
23:00 -1°C° 0 mm 1 mps 624 mmHg 80%

29 October, Thursday

Time Temperature Precipitation Wind Pressure Humidity
00:00 -1°C° 0 mm 1 mps 624 mmHg 81%
01:00 -1°C° 0 mm 1 mps 624 mmHg 83%
02:00 -1°C° 0 mm 1 mps 624 mmHg 84%
03:00 -1°C° 0 mm 1 mps 624 mmHg 85%
04:00 -1°C° 0 mm 1 mps 624 mmHg 85%
05:00 -1°C° 0 mm 1 mps 625 mmHg 87%
06:00 0°C° 0 mm 1 mps 625 mmHg 89%
07:00 0°C° 0 mm 1 mps 625 mmHg 92%
08:00 +1°C° 0 mm 1 mps 626 mmHg 92%
09:00 +2°C° 0 mm 1 mps 627 mmHg 92%
10:00 +3°C° 0 mm 0 mps 627 mmHg 92%
11:00 +3°C° 0 mm 0 mps 627 mmHg 92%
12:00 +4°C° 0 mm 0 mps 628 mmHg 92%
13:00 +4°C° 0 mm 0 mps 628 mmHg 92%
14:00 +4°C° 0 mm 0 mps 628 mmHg 93%
15:00 +3°C° 0 mm 0 mps 628 mmHg 94%
16:00 +3°C° 0 mm 0 mps 628 mmHg 95%
17:00 +3°C° 0 mm 1 mps 628 mmHg 94%
18:00 +2°C° 0 mm 1 mps 628 mmHg 93%
19:00 +1°C° 0 mm 1 mps 628 mmHg 92%
20:00 +1°C° 0 mm 1 mps 628 mmHg 90%
21:00 -2°C° 0 mm 2 mps 628 mmHg 89%
22:00 -2°C° 0 mm 2 mps 629 mmHg 87%
23:00 -2°C° 0 mm 2 mps 629 mmHg 86%

30 October, Friday

Time Temperature Precipitation Wind Pressure Humidity
00:00 -2°C° 0 mm 2 mps 629 mmHg 84%
01:00 -2°C° 0 mm 2 mps 629 mmHg 82%
02:00 -2°C° 0 mm 2 mps 629 mmHg 81%
03:00 -2°C° 0 mm 2 mps 629 mmHg 79%
04:00 -2°C° 0 mm 2 mps 629 mmHg 78%
05:00 -2°C° 0 mm 2 mps 629 mmHg 77%
06:00 -2°C° 0 mm 2 mps 629 mmHg 76%
07:00 -2°C° 0 mm 2 mps 629 mmHg 75%
08:00 +1°C° 0 mm 2 mps 629 mmHg 77%
09:00 +3°C° 0 mm 2 mps 630 mmHg 79%
10:00 +4°C° 0 mm 2 mps 630 mmHg 81%
11:00 +6°C° 0 mm 1 mps 631 mmHg 82%
12:00 +7°C° 0 mm 1 mps 631 mmHg 82%
13:00 +8°C° 0 mm 1 mps 631 mmHg 83%
14:00 +7°C° 0 mm 1 mps 630 mmHg 84%
15:00 +7°C° 0 mm 1 mps 630 mmHg 85%
16:00 +5°C° 0 mm 2 mps 629 mmHg 86%
17:00 +4°C° 0 mm 2 mps 629 mmHg 84%
18:00 +3°C° 0 mm 2 mps 629 mmHg 82%
19:00 +2°C° 0 mm 2 mps 629 mmHg 80%
20:00 +2°C° 0 mm 2 mps 629 mmHg 79%
21:00 +1°C° 0 mm 2 mps 629 mmHg 78%
22:00 +1°C° 0 mm 2 mps 628 mmHg 76%
23:00 +1°C° 0 mm 2 mps 628 mmHg 76%
Show more